User: anonymous   Login
Location: Bishop�s Knoyle
(51.0728°N, 2.1714°W)
Time: 16:17:14
(UTC+00:00)
Language:

SPOT 5 - Orbit

View from above orbital plane
View from above orbital plane
View from above satellite
View from above satellite

Ground track
Ground track

The orbit data is extracted from the following two-line orbital elements,

1 27421U 02021A   21135.75325299 -.00000084  00000-0 -68900-5 0  9997
2 27421  98.2282 207.0388 0133693 263.6036  94.9890 14.52095550992979
Epoch (UTC): 15 May 2021 18:04:41
Eccentricity: 0.0133693
inclination: 98.2282°
perigee height: 624 km
apogee height: 813 km
right ascension of ascending node: 207.0388°
argument of perigee: 263.6036°
revolutions per day: 14.52095550
mean anomaly at epoch: 94.9890°
orbit number at epoch: 99297

The dashed part of the orbit path shows where the satellite is in the earth's shadow,  

DLR